When you browse on this site, cookies collect data to enhance your experience and personalize the content and advertising you see.
Visit our Privacy Policy to learn more. By continuing to use the site, you agree to this use of cookies and data.
  • In United Kingdom
  • List of Countries
  • For 7 days
  • Water Temperature
  • Weather Map
  • Weather Widgets
  • user-avatar
    Login

    Hourly Weather Kasumkent

    Today, 21 August, Wednesday

    Time Temperature Precipitation Wind Pressure Humidity
    00:00 +23°C° 0 mm 1 mps 717 mmHg 46%
    01:00 +23°C° 0 mm 2 mps 716 mmHg 46%
    02:00 +23°C° 0 mm 2 mps 716 mmHg 47%
    03:00 +23°C° 0 mm 2 mps 716 mmHg 47%
    04:00 +23°C° 0 mm 2 mps 716 mmHg 47%
    05:00 +24°C° 0 mm 2 mps 716 mmHg 47%
    06:00 +24°C° 0 mm 2 mps 717 mmHg 46%
    07:00 +27°C° 0 mm 2 mps 717 mmHg 40%
    08:00 +29°C° 0 mm 2 mps 717 mmHg 34%
    09:00 +32°C° 0 mm 2 mps 718 mmHg 28%
    10:00 +34°C° 0 mm 3 mps 717 mmHg 25%
    11:00 +35°C° 0 mm 3 mps 717 mmHg 23%
    12:00 +36°C° 0 mm 4 mps 717 mmHg 20%
    13:00 +36°C° 0 mm 5 mps 717 mmHg 20%
    14:00 +36°C° 0 mm 5 mps 716 mmHg 21%
    15:00 +36°C° 0 mm 5 mps 716 mmHg 21%
    16:00 +34°C° 0 mm 4 mps 715 mmHg 25%
    17:00 +31°C° 0 mm 3 mps 715 mmHg 30%
    18:00 +29°C° 0 mm 2 mps 715 mmHg 34%
    19:00 +28°C° 0 mm 2 mps 714 mmHg 36%
    20:00 +26°C° 0 mm 2 mps 714 mmHg 39%
    21:00 +25°C° 0 mm 2 mps 714 mmHg 41%
    22:00 +25°C° 0 mm 2 mps 714 mmHg 40%
    23:00 +25°C° 0 mm 2 mps 714 mmHg 40%

    Tomorrow, 22 August, Thursday

    Time Temperature Precipitation Wind Pressure Humidity
    00:00 +25°C° 0 mm 2 mps 714 mmHg 40%
    01:00 +24°C° 0 mm 2 mps 714 mmHg 40%
    02:00 +24°C° 0 mm 2 mps 714 mmHg 41%
    03:00 +23°C° 0 mm 2 mps 714 mmHg 42%
    04:00 +24°C° 0 mm 2 mps 714 mmHg 42%
    05:00 +24°C° 0 mm 2 mps 714 mmHg 42%
    06:00 +24°C° 0 mm 2 mps 714 mmHg 42%
    07:00 +27°C° 0 mm 2 mps 714 mmHg 36%
    08:00 +30°C° 0 mm 2 mps 714 mmHg 30%
    09:00 +34°C° 0 mm 3 mps 715 mmHg 24%
    10:00 +35°C° 0 mm 4 mps 715 mmHg 22%
    11:00 +36°C° 0 mm 5 mps 715 mmHg 20%
    12:00 +37°C° 0 mm 5 mps 715 mmHg 18%
    13:00 +38°C° 0 mm 6 mps 714 mmHg 18%
    14:00 +38°C° 0 mm 6 mps 714 mmHg 18%
    15:00 +38°C° 0 mm 6 mps 714 mmHg 19%
    16:00 +35°C° 0 mm 5 mps 713 mmHg 24%
    17:00 +33°C° 0 mm 4 mps 713 mmHg 29%
    18:00 +30°C° 0 mm 2 mps 713 mmHg 33%
    19:00 +28°C° 0 mm 2 mps 713 mmHg 36%
    20:00 +26°C° 0 mm 2 mps 713 mmHg 38%
    21:00 +25°C° 0 mm 2 mps 714 mmHg 41%
    22:00 +24°C° 0 mm 2 mps 714 mmHg 40%
    23:00 +24°C° 0 mm 2 mps 714 mmHg 40%

    Day after tomorrow, 23 August, Friday

    Time Temperature Precipitation Wind Pressure Humidity
    00:00 +24°C° 0 mm 1 mps 714 mmHg 39%
    01:00 +24°C° 0 mm 2 mps 714 mmHg 38%
    02:00 +24°C° 0 mm 2 mps 714 mmHg 37%
    03:00 +24°C° 0 mm 2 mps 714 mmHg 36%
    04:00 +24°C° 0 mm 2 mps 714 mmHg 37%
    05:00 +24°C° 0 mm 2 mps 714 mmHg 37%
    06:00 +25°C° 0 mm 2 mps 714 mmHg 37%
    07:00 +28°C° 0 mm 2 mps 714 mmHg 32%
    08:00 +31°C° 0 mm 2 mps 715 mmHg 27%
    09:00 +34°C° 0 mm 2 mps 715 mmHg 23%
    10:00 +35°C° 0 mm 4 mps 715 mmHg 22%
    11:00 +36°C° 0 mm 5 mps 715 mmHg 21%
    12:00 +38°C° 0 mm 6 mps 715 mmHg 21%
    13:00 +38°C° 0 mm 6 mps 715 mmHg 21%
    14:00 +38°C° 0 mm 6 mps 715 mmHg 21%
    15:00 +38°C° 0 mm 6 mps 714 mmHg 22%
    16:00 +36°C° 0 mm 5 mps 714 mmHg 26%
    17:00 +34°C° 0 mm 4 mps 714 mmHg 30%
    18:00 +31°C° 0 mm 3 mps 714 mmHg 34%
    19:00 +29°C° 0 mm 3 mps 714 mmHg 37%
    20:00 +27°C° 0 mm 2 mps 714 mmHg 41%
    21:00 +25°C° 0 mm 2 mps 714 mmHg 44%
    22:00 +25°C° 0 mm 2 mps 714 mmHg 42%
    23:00 +25°C° 0 mm 2 mps 714 mmHg 39%

    24 August, Saturday

    Time Temperature Precipitation Wind Pressure Humidity
    00:00 +25°C° 0 mm 2 mps 714 mmHg 37%
    01:00 +24°C° 0 mm 2 mps 714 mmHg 37%
    02:00 +24°C° 0 mm 2 mps 714 mmHg 36%
    03:00 +24°C° 0 mm 2 mps 714 mmHg 35%
    04:00 +24°C° 0 mm 2 mps 714 mmHg 36%
    05:00 +25°C° 0 mm 2 mps 714 mmHg 37%
    06:00 +25°C° 0 mm 2 mps 714 mmHg 37%
    07:00 +28°C° 0 mm 2 mps 715 mmHg 32%
    08:00 +30°C° 0 mm 2 mps 715 mmHg 27%
    09:00 +34°C° 0 mm 2 mps 716 mmHg 22%
    10:00 +36°C° 0 mm 4 mps 716 mmHg 21%
    11:00 +37°C° 0 mm 5 mps 716 mmHg 21%
    12:00 +39°C° 0 mm 6 mps 716 mmHg 20%
    13:00 +39°C° 0 mm 7 mps 716 mmHg 20%
    14:00 +39°C° 0 mm 8 mps 715 mmHg 21%
    15:00 +38°C° 0 mm 9 mps 715 mmHg 21%
    16:00 +35°C° 0 mm 7 mps 715 mmHg 27%
    17:00 +32°C° 0 mm 5 mps 715 mmHg 33%
    18:00 +29°C° 0 mm 3 mps 715 mmHg 38%
    19:00 +27°C° 0 mm 2 mps 715 mmHg 41%
    20:00 +26°C° 0 mm 2 mps 715 mmHg 43%
    21:00 +24°C° 0 mm 2 mps 716 mmHg 45%
    22:00 +24°C° 0 mm 2 mps 716 mmHg 44%
    23:00 +24°C° 0 mm 2 mps 716 mmHg 42%

    25 August, Sunday

    Time Temperature Precipitation Wind Pressure Humidity
    00:00 +23°C° 0 mm 2 mps 716 mmHg 40%
    01:00 +23°C° 0 mm 2 mps 716 mmHg 40%
    02:00 +23°C° 0 mm 2 mps 715 mmHg 39%
    03:00 +23°C° 0 mm 2 mps 715 mmHg 38%
    04:00 +24°C° 0 mm 2 mps 715 mmHg 39%
    05:00 +25°C° 0 mm 2 mps 716 mmHg 40%
    06:00 +26°C° 0 mm 2 mps 716 mmHg 40%
    07:00 +27°C° 0 mm 2 mps 716 mmHg 36%
    08:00 +29°C° 0 mm 2 mps 716 mmHg 31%
    09:00 +30°C° 0 mm 2 mps 717 mmHg 27%
    10:00 +31°C° 0 mm 2 mps 717 mmHg 25%
    11:00 +33°C° 0 mm 3 mps 717 mmHg 24%
    12:00 +34°C° 0 mm 4 mps 717 mmHg 22%
    13:00 +34°C° 0 mm 4 mps 716 mmHg 22%
    14:00 +34°C° 0 mm 5 mps 716 mmHg 23%
    15:00 +34°C° 0 mm 5 mps 716 mmHg 24%
    16:00 +32°C° 0 mm 4 mps 716 mmHg 27%
    17:00 +29°C° 0 mm 3 mps 715 mmHg 31%
    18:00 +27°C° 0 mm 2 mps 715 mmHg 35%
    19:00 +26°C° 0 mm 2 mps 715 mmHg 36%
    20:00 +24°C° 0 mm 2 mps 715 mmHg 37%
    21:00 +23°C° 0 mm 2 mps 715 mmHg 38%
    22:00 +23°C° 0 mm 2 mps 715 mmHg 37%
    23:00 +23°C° 0 mm 2 mps 715 mmHg 36%

    26 August, Monday

    Time Temperature Precipitation Wind Pressure Humidity
    00:00 +23°C° 0 mm 2 mps 715 mmHg 35%
    01:00 +21°C° 0 mm 2 mps 715 mmHg 35%
    02:00 +21°C° 0 mm 2 mps 715 mmHg 35%
    03:00 +21°C° 0 mm 2 mps 715 mmHg 35%
    04:00 +21°C° 0 mm 2 mps 715 mmHg 36%
    05:00 +23°C° 0 mm 2 mps 715 mmHg 37%
    06:00 +23°C° 0 mm 2 mps 715 mmHg 38%
    07:00 +25°C° 0 mm 2 mps 716 mmHg 34%
    08:00 +27°C° 0 mm 2 mps 716 mmHg 29%
    09:00 +30°C° 0 mm 2 mps 716 mmHg 24%
    10:00 +31°C° 0 mm 3 mps 716 mmHg 23%
    11:00 +33°C° 0 mm 3 mps 716 mmHg 22%
    12:00 +34°C° 0 mm 4 mps 716 mmHg 21%
    13:00 +33°C° 0 mm 4 mps 716 mmHg 22%
    14:00 +32°C° 0 mm 4 mps 716 mmHg 23%
    15:00 +32°C° 0 mm 4 mps 716 mmHg 25%
    16:00 +29°C° 0 mm 3 mps 716 mmHg 31%
    17:00 +27°C° 0 mm 2 mps 716 mmHg 36%
    18:00 +25°C° 0 mm 1 mps 716 mmHg 42%
    19:00 +24°C° 0 mm 1 mps 717 mmHg 43%
    20:00 +24°C° 0 mm 2 mps 717 mmHg 44%
    21:00 +23°C° 0 mm 2 mps 717 mmHg 44%
    22:00 +23°C° 0 mm 2 mps 718 mmHg 46%
    23:00 +23°C° 0 mm 2 mps 718 mmHg 47%
    Show more